Wind_Speed
26 25 24 23 22 21 20 19 18 17 16 15 13 12 10 9 9 9 8 7 7 7 8 9 10 11 12 14 15 16 17 18 20 22 23 24 25 25 26 27 28 29 29 30 30 31 32 31 31 30 28 25 22 19 12 5 2 5 8 10 6 5 7 7 5 7 10 13 12 11 11 11 11 10 9 9 11 12 13 14 15 16 16 17 17 17 17 18
29 28 27 26 25 24 23 22 21 20 18 17 16 15 13 12 11 10 10 9 9 8 8 8 8 9 10 11 13 14 15 16 17 19 21 22 23 24 24 25 26 27 28 28 29 30 31 31 31 31 29 27 25 22 17 10 3 3 8 9 7 6 5 6 5 6 8 11 10 10 10 9 9 8 7 6 6 7 8 8 9 9 10 11 11 11 12 12
32 31 30 29 28 27 26 25 24 22 21 20 19 18 16 15 14 12 12 11 10 10 9 8 8 8 9 9 10 11 13 14 15 16 18 20 21 22 23 24 24 25 26 27 28 29 30 31 31 31 30 29 29 25 19 15 8 0 6 8 8 6 4 5 6 6 7 8 9 8 8 8 8 8 6 5 4 4 4 4 4 5 5 6 7 7 8 8
36 35 34 32 31 30 29 27 26 25 24 23 22 20 19 18 17 15 14 13 12 12 11 10 9 8 8 8 8 9 10 12 13 14 15 17 19 20 21 22 23 23 24 25 26 27 28 30 30 31 30 30 31 28 23 19 13 5 2 7 8 6 5 6 7 6 6 7 8 8 7 7 7 7 6 5 4 4 4 4 5 5 4 5 5 6 6 6
39 38 37 36 34 33 32 31 29 28 27 26 25 23 22 21 19 19 17 16 15 14 13 12 11 9 9 8 8 8 8 10 11 12 13 15 16 18 19 21 22 22 23 24 25 26 27 28 30 31 30 30 32 29 27 24 16 8 2 5 7 7 7 7 6 7 7 7 8 8 7 8 7 7 6 5 4 3 3 4 5 6 5 4 4 4 5 5
41 40 40 39 38 36 35 34 33 31 30 29 28 26 25 24 22 21 20 19 17 16 15 15 14 12 10 10 9 8 8 8 9 11 12 13 14 16 17 19 20 21 21 22 23 24 25 26 28 29 29 29 31 30 29 26 19 11 4 3 6 8 8 8 7 8 8 8 9 9 8 9 8 7 6 5 4 3 2 2 4 4 3 3 2 3 5 5
42 42 42 41 40 39 38 37 36 34 33 32 31 30 28 27 25 24 23 22 20 19 18 17 17 15 13 12 10 9 9 8 8 9 11 12 13 14 15 17 18 19 20 20 21 23 24 25 26 27 28 28 30 31 29 25 20 15 10 5 5 6 8 8 8 9 10 11 11 10 8 8 8 7 4 3 3 1 1 2 3 4 4 4 3 3 4 5
41 41 42 42 42 42 41 40 39 38 36 35 34 33 31 30 28 27 26 25 24 22 21 20 19 19 16 14 12 11 10 9 8 9 10 11 11 12 13 14 16 17 18 19 20 21 22 23 24 25 25 26 28 30 28 23 20 18 15 11 6 5 6 8 9 9 10 11 11 10 8 7 7 6 4 2 2 2 3 4 5 5 5 5 5 4 5 5
41 41 41 42 42 42 42 42 41 41 39 38 37 35 34 33 31 30 28 28 27 25 24 23 22 22 20 17 15 13 13 12 10 9 10 11 11 11 12 13 14 15 16 18 18 19 20 21 23 23 23 24 26 28 28 23 19 19 19 15 10 6 4 6 8 9 9 10 10 9 8 7 6 5 4 2 3 3 4 4 4 4 5 5 5 5 5 4
44 43 43 42 42 42 42 42 42 42 42 41 39 38 37 36 34 33 31 30 29 28 27 26 25 24 23 22 18 15 16 14 12 11 11 11 11 11 11 11 12 13 14 16 17 18 18 19 20 21 21 21 23 26 25 22 20 20 20 18 15 10 6 5 6 7 8 8 8 7 6 5 5 4 3 3 4 5 4 2 2 3 3 3 3 3 3 3
48 47 46 45 43 43 42 42 42 42 43 42 41 41 39 38 37 35 34 33 31 31 30 29 28 27 26 25 21 19 19 16 15 14 12 12 12 12 11 11 10 11 12 13 15 16 17 17 18 18 19 19 21 24 23 20 21 22 21 20 18 15 12 9 8 7 7 7 8 7 6 5 4 3 3 5 6 5 4 2 1 4 5 4 4 5 5 5
52 51 50 48 47 46 44 43 42 42 42 43 42 42 41 40 38 37 36 35 34 33 32 31 31 30 29 28 25 23 21 19 18 18 15 14 13 13 13 11 10 10 10 11 12 14 15 16 16 17 18 18 20 22 20 18 20 22 22 21 19 18 17 17 15 12 10 8 6 6 5 4 2 1 2 2 2 1 2 3 4 6 7 8 8 9 8 8
57 56 55 53 52 50 49 47 45 44 43 43 42 42 42 41 39 38 38 38 36 35 34 34 33 34 32 30 29 27 24 23 21 20 18 16 15 15 15 13 12 10 9 9 10 12 13 14 15 15 16 17 18 19 18 17 18 19 21 21 20 19 18 18 18 16 15 13 12 11 10 8 8 8 8 8 8 10 10 10 9 8 8 10 11 12 11 11
61 60 59 58 57 55 53 51 50 48 46 45 44 43 43 42 40 39 39 38 38 37 36 36 36 37 36 34 33 29 27 27 24 23 21 19 18 18 17 16 14 11 9 9 8 9 10 12 13 13 14 14 16 16 16 16 16 17 18 19 20 19 18 18 17 17 16 14 14 14 13 13 13 13 13 12 12 12 12 12 11 9 9 9 11 13 13 13
66 65 64 62 61 60 58 57 54 52 50 49 47 46 45 43 41 40 40 39 40 40 39 39 39 39 39 37 36 33 31 30 26 25 25 22 21 20 19 18 17 14 11 10 8 7 8 9 10 12 12 13 13 13 13 13 13 14 15 16 17 18 18 18 18 18 18 17 17 16 15 15 14 13 13 13 13 12 12 13 13 11 11 11 11 13 14 14
70 69 68 67 65 64 63 61 60 57 55 53 51 49 48 46 43 42 42 41 40 40 41 42 42 42 41 40 39 36 33 32 30 29 28 26 24 22 22 21 19 17 15 12 10 8 6 7 8 9 11 11 11 11 11 11 11 12 12 13 14 16 17 17 17 18 19 19 20 19 18 17 15 14 13 14 14 14 14 15 15 15 14 13 12 13 14 14
73 72 72 71 70 68 66 65 64 63 60 58 56 53 51 50 47 45 45 44 42 41 42 43 43 44 44 42 41 40 37 34 34 33 31 29 27 25 25 23 21 20 18 16 14 11 8 6 6 6 8 9 9 9 9 9 9 9 10 10 11 12 14 15 15 16 18 18 19 19 19 18 17 15 14 14 14 14 14 14 16 16 15 14 13 12 13 13
76 76 75 75 74 72 71 69 68 67 65 63 61 58 56 53 51 49 48 47 46 44 43 43 44 46 45 43 43 43 40 37 37 37 34 32 30 29 27 25 24 23 22 20 17 15 12 9 6 5 5 6 7 8 8 7 7 7 7 8 8 9 10 12 12 13 14 15 16 17 17 17 16 15 14 13 13 13 13 12 13 14 14 14 13 12 10 10
79 79 78 78 77 76 74 73 72 71 69 67 65 63 60 57 55 53 51 50 50 48 45 44 45 46 46 45 45 45 43 41 41 40 37 35 34 32 30 28 27 26 25 24 21 18 16 13 10 7 6 5 5 6 6 6 6 6 5 6 5 6 6 8 9 9 9 11 12 13 14 14 13 12 12 11 11 11 11 10 10 11 11 11 11 11 10 9
82 81 81 80 80 79 78 77 76 75 73 70 68 67 64 61 60 57 55 56 55 52 50 48 48 48 47 47 47 46 46 44 44 42 39 38 37 35 33 31 30 30 29 27 24 22 20 17 14 11 9 7 5 5 5 5 5 5 4 4 4 4 4 4 6 6 7 7 7 8 9 10 9 8 7 7 7 8 8 8 8 8 8 9 10 11 11 11
84 84 83 83 82 82 81 80 80 79 78 74 71 70 67 65 64 62 60 61 59 56 53 52 51 51 49 49 48 48 48 47 47 45 41 40 40 38 37 35 34 34 33 30 27 26 24 20 18 15 13 10 8 6 5 4 5 5 4 4 4 4 4 4 3 3 4 5 5 4 4 4 5 6 5 5 4 4 5 6 6 7 7 8 8 10 11 11
87 87 86 85 84 83 83 82 82 82 82 78 75 72 71 70 69 66 64 64 62 58 56 56 55 54 52 50 50 49 49 49 49 47 44 42 42 41 41 39 37 37 35 31 30 30 27 23 22 20 17 14 12 10 8 6 5 5 5 5 5 4 4 4 4 3 2 3 3 3 2 2 3 4 4 4 3 3 3 4 5 6 7 7 8 9 9 10
90 90 89 88 86 85 84 83 83 84 84 82 79 76 75 74 72 68 66 67 67 62 61 61 59 57 54 52 52 51 50 50 50 50 46 44 44 44 44 42 41 39 35 33 34 34 31 26 25 24 21 18 16 14 12 9 7 6 6 6 6 5 5 5 6 5 5 3 2 2 2 1 1 2 2 3 4 3 3 3 4 5 5 5 6 7 7 9
91 92 92 91 90 88 86 85 84 84 85 84 81 80 79 77 73 71 69 70 71 68 65 64 62 60 58 57 56 53 52 52 51 51 49 46 47 46 45 45 43 40 37 37 37 37 34 29 27 27 25 22 19 17 16 13 11 9 8 8 7 7 6 7 7 6 7 7 4 3 3 2 1 1 2 1 2 3 3 2 2 2 2 3 4 5 6 7
89 91 92 92 92 91 90 88 86 85 86 84 82 82 82 79 75 74 72 72 74 72 67 66 66 65 64 60 58 56 55 54 53 53 50 49 48 47 47 47 44 42 41 40 39 39 37 32 30 30 28 25 23 21 19 17 15 13 11 10 9 8 8 8 8 8 8 10 9 6 5 5 4 3 2 2 3 4 4 3 2 1 2 2 4 5 6 7
83 86 89 91 92 93 93 91 89 87 87 85 84 84 82 79 77 76 75 73 75 75 70 69 70 69 66 62 61 61 58 57 57 55 52 51 50 49 49 48 46 45 44 43 41 40 39 35 32 33 32 29 26 24 23 21 19 17 15 13 11 9 9 10 10 9 9 11 13 10 9 8 7 6 5 4 4 6 7 6 4 4 4 5 6 7 8 9
76 81 84 87 89 92 93 93 91 89 89 87 86 85 83 80 78 77 76 74 75 76 73 72 73 71 68 66 66 63 60 61 61 58 55 54 52 51 51 49 48 47 47 44 41 40 42 39 35 36 36 32 29 28 26 24 23 21 19 17 15 12 11 11 12 11 10 11 14 13 13 12 10 9 8 7 7 6 7 8 7 7 7 8 9 10 11 12
69 74 78 81 84 88 92 93 91 90 90 90 88 86 84 81 79 78 76 74 75 77 75 74 75 74 71 69 68 65 64 65 64 60 59 57 55 53 52 50 50 50 49 45 42 44 46 42 38 39 38 34 32 31 29 27 26 26 22 21 20 16 14 13 13 13 12 12 13 14 14 15 13 12 11 10 10 8 8 10 10 10 10 11 12 13 13 14
61 66 70 76 78 81 87 91 90 90 91 91 89 87 86 83 80 79 76 76 77 77 76 75 75 75 74 70 69 68 68 68 66 63 62 60 57 55 53 52 52 52 50 46 45 48 46 42 41 40 38 37 36 34 32 29 31 29 25 25 24 20 17 16 16 16 14 14 14 14 14 16 16 14 11 11 12 11 10 11 12 13 13 14 16 16 16 16
56 58 63 69 73 76 81 86 87 89 91 91 89 88 87 84 82 80 77 79 79 77 77 77 76 76 75 72 70 70 70 69 68 67 65 64 61 57 55 54 53 52 50 47 48 48 46 44 43 39 39 40 39 37 34 33 36 32 28 29 28 24 21 19 19 18 16 17 16 14 13 15 17 17 13 11 13 13 11 11 13 14 15 16 18 20 19 18
54 54 57 63 68 72 76 79 81 85 89 90 90 90 88 86 83 79 79 81 80 79 79 79 79 77 76 74 72 72 72 72 72 70 68 67 64 60 58 56 54 52 50 48 47 48 47 44 41 39 41 43 42 39 36 38 40 35 32 32 31 28 26 22 22 20 19 20 19 16 15 15 18 20 17 14 14 14 13 13 14 15 15 15 17 20 22 20
54 54 55 58 63 68 71 73 75 80 84 87 90 90 89 87 82 78 81 82 81 82 83 82 81 79 78 76 74 74 74 74 74 72 70 70 67 63 61 58 56 54 50 48 47 48 47 44 42 42 44 45 44 41 39 41 42 37 36 35 34 33 30 26 26 24 22 23 22 19 17 16 19 21 20 18 16 16 16 16 17 17 16 16 17 20 23 22
55 55 56 56 60 64 66 68 70 74 78 82 87 89 90 86 81 80 83 83 83 86 86 84 84 82 80 79 77 77 76 75 75 74 73 72 70 66 64 62 59 57 53 51 50 51 49 47 46 45 45 47 46 43 42 44 44 42 39 38 38 37 32 29 29 28 27 27 25 22 20 19 22 23 22 21 19 19 19 20 20 18 18 19 19 21 23 24
55 55 57 57 59 61 62 64 66 70 74 77 81 86 88 86 82 83 84 84 87 88 87 86 86 83 81 80 79 78 77 76 76 76 75 74 72 68 66 64 62 59 57 55 53 53 51 49 46 46 47 48 48 47 46 47 48 45 42 40 41 39 34 32 33 32 31 30 27 24 22 23 24 24 23 22 22 22 23 24 23 22 22 22 20 21 23 26
56 55 57 59 59 58 57 59 62 66 70 72 75 79 82 84 85 86 87 88 90 90 89 89 87 84 82 80 80 79 78 78 77 78 77 76 73 70 68 67 64 62 60 57 55 54 52 48 47 48 49 50 51 51 50 49 49 48 44 41 42 40 37 38 37 35 35 32 29 28 27 27 27 26 25 25 24 25 26 28 28 28 27 24 23 23 24 27
57 56 58 60 58 56 55 57 59 62 66 68 69 71 74 80 85 89 91 92 92 91 90 88 85 84 83 81 80 80 80 79 79 79 77 76 75 73 70 69 67 65 63 60 58 57 54 50 50 51 50 50 52 53 51 49 50 50 45 42 44 43 41 41 40 37 36 34 31 32 32 32 30 27 27 28 28 29 30 31 33 34 32 29 29 28 27 28
58 57 58 58 57 55 54 55 56 58 62 65 65 66 69 74 82 89 94 95 94 92 90 86 85 84 83 82 81 81 81 81 80 79 77 76 75 74 72 70 68 66 65 63 62 61 58 56 56 55 53 52 54 55 52 50 52 52 47 45 47 44 42 43 40 37 38 37 35 36 36 35 32 29 30 32 32 32 33 34 36 38 37 35 34 32 31 32
59 58 58 56 56 56 54 53 53 54 58 60 61 63 66 70 78 87 95 97 96 92 88 86 86 84 83 83 82 83 83 82 82 80 78 76 75 74 73 71 69 67 66 65 65 64 63 62 61 60 57 56 57 56 54 53 54 53 49 47 47 44 44 44 41 39 40 40 39 39 38 37 35 33 33 35 35 36 36 37 38 41 41 39 38 37 36 36
60 60 57 55 56 55 52 51 52 52 53 55 59 62 64 69 75 84 93 98 97 92 88 88 87 86 85 84 84 84 84 84 84 82 79 77 74 75 75 73 71 69 68 68 67 66 66 65 64 63 60 59 60 59 56 55 55 54 50 48 47 46 47 47 44 42 42 42 42 41 41 41 38 36 36 36 37 38 38 39 41 43 43 41 41 41 39 38
61 60 57 55 56 54 52 51 51 49 49 51 56 59 62 67 73 80 89 95 96 92 90 90 89 87 86 85 85 86 85 85 85 83 80 78 76 76 77 76 73 71 71 70 69 68 67 66 66 65 63 63 62 59 57 57 57 55 52 50 48 48 51 51 47 44 45 45 44 43 44 44 42 39 38 37 38 39 40 41 43 44 43 42 44 43 41 41
61 60 57 55 56 54 52 51 49 47 45 47 52 57 60 64 70 77 85 91 93 93 92 92 90 87 87 87 87 87 86 85 84 83 81 79 77 77 77 77 76 74 74 73 71 69 68 67 68 68 66 65 61 57 59 62 59 57 55 53 52 52 53 53 50 47 46 46 46 46 47 45 44 42 40 39 39 40 41 43 44 43 42 43 45 45 44 44
61 60 58 56 56 55 53 51 49 46 44 46 51 54 58 62 68 75 81 86 90 92 94 94 90 88 88 88 89 88 87 86 84 83 81 79 77 76 77 79 79 79 77 75 72 71 70 70 71 71 68 65 61 59 63 65 62 59 57 55 55 54 52 53 52 50 49 49 49 49 47 45 45 45 44 42 41 42 44 46 45 42 42 44 46 46 46 46
62 61 58 56 57 56 53 52 50 47 44 46 49 51 54 59 64 72 78 83 87 92 95 95 92 90 90 91 90 90 89 87 85 83 81 78 77 78 80 82 84 83 80 77 75 75 75 74 73 72 69 67 65 63 65 67 65 61 58 56 56 55 53 54 54 53 54 53 51 50 48 45 46 47 47 45 44 44 47 48 45 42 42 45 47 48 48 48
63 63 60 57 57 56 55 55 54 51 48 48 47 48 51 55 61 69 75 80 86 91 95 96 93 92 92 93 92 91 90 88 86 84 82 78 77 79 82 84 85 84 80 77 76 77 78 75 74 75 73 70 68 66 65 67 65 62 59 58 58 57 57 57 56 56 57 56 53 52 51 49 48 49 48 47 46 47 49 49 46 44 44 46 48 50 51 51
63 65 62 57 57 57 58 60 59 55 52 48 45 45 47 51 57 65 72 79 84 89 93 95 94 93 94 94 92 91 90 89 87 86 84 80 78 80 82 83 85 84 80 78 78 80 80 77 76 77 75 71 68 65 63 65 66 64 62 60 60 60 60 59 58 59 60 58 57 56 55 52 51 50 49 48 48 50 51 50 47 46 46 46 48 52 54 54
63 65 64 59 58 59 61 64 62 57 52 48 45 45 45 48 54 61 69 76 83 88 93 95 95 96 96 95 94 92 91 89 87 86 85 84 82 81 82 82 82 82 80 79 80 82 81 79 78 78 76 73 69 67 66 67 69 69 66 63 62 64 64 64 63 62 61 62 62 60 57 54 52 50 50 50 51 51 52 52 49 48 47 47 49 53 55 56
65 65 65 63 62 61 64 66 64 60 55 50 47 47 46 47 52 59 67 75 82 88 94 97 98 98 97 96 95 93 91 89 87 87 87 86 84 82 81 79 78 78 79 80 81 82 81 79 78 78 77 76 73 71 71 72 72 71 69 67 67 68 68 68 65 62 63 65 64 62 60 57 54 52 52 52 52 53 54 53 50 48 47 48 51 54 55 57
68 68 68 68 66 64 65 69 67 63 59 53 50 49 47 47 51 57 65 74 82 89 93 96 98 99 98 97 96 94 92 90 89 89 89 86 84 83 80 78 77 77 78 79 81 82 80 78 77 77 78 78 76 74 74 74 73 72 71 71 71 71 71 69 66 64 65 66 65 65 64 60 56 54 54 54 55 56 56 52 49 49 49 50 53 54 55 58
73 72 72 71 70 67 67 70 70 66 63 58 54 52 48 47 50 55 63 74 82 88 92 95 98 101 101 100 99 97 94 93 91 91 89 84 82 82 79 78 79 78 77 78 79 80 79 77 76 77 79 79 77 75 76 76 75 73 72 74 74 74 73 71 69 67 68 69 67 68 67 61 58 57 56 58 59 58 57 53 51 51 51 52 55 56 56 58
76 76 76 74 73 71 69 71 71 69 66 61 55 52 49 47 50 54 62 73 81 87 93 96 99 102 102 102 101 98 95 94 92 91 87 84 82 81 79 80 80 80 79 79 78 78 77 75 75 76 79 79 77 76 76 75 74 73 73 74 76 75 74 73 72 71 71 70 69 70 69 63 60 60 61 62 63 61 59 56 55 54 53 54 57 59 60 61
79 79 78 76 75 74 72 72 72 71 69 62 56 53 51 50 52 54 59 69 80 87 94 98 99 101 101 101 100 98 96 94 92 90 88 87 85 83 81 81 81 80 79 80 80 79 78 76 76 76 77 77 76 75 74 72 72 73 73 73 74 75 76 76 75 75 74 71 70 71 70 65 64 65 66 66 65 64 62 60 59 58 56 57 60 61 64 65
81 80 80 78 78 77 76 74 73 73 70 64 58 56 55 53 54 54 56 65 77 86 91 96 99 100 100 99 99 99 98 95 92 90 89 89 88 85 84 84 82 80 79 81 81 80 78 78 78 77 77 76 75 74 73 71 71 73 73 72 74 76 76 76 76 76 75 71 70 71 70 67 68 70 69 67 67 67 66 64 62 61 60 61 63 65 67 68
Wind_Direction
236 236 236 236 237 239 240 240 239 239 242 245 246 246 249 257 269 282 292 303 313 324 336 346 357 8 14 19 22 25 24 23 24 25 25 26 29 30 31 32 31 29 29 31 33 33 34 35 35 34 35 34 34 31 24 13 248 221 231 223 190 205 186 152 191 205 201 196 185 185 185 186 187 191 201 213 224 227 233 238 242 245 248 252 255 257 260 264
238 237 237 237 237 238 240 241 243 243 243 245 247 249 249 250 256 268 279 287 296 305 315 325 339 352 3 12 16 20 21 20 21 22 23 24 26 29 29 30 31 30 28 28 31 32 33 34 34 33 34 35 35 33 27 23 19 195 214 211 182 211 193 140 181 187 189 186 169 165 160 159 163 168 176 186 208 220 227 234 243 250 253 256 259 261 263 267
240 239 239 238 238 238 239 241 243 244 245 245 247 249 251 252 253 257 266 275 283 291 299 306 317 332 345 359 8 14 17 16 16 17 20 21 23 26 28 29 30 30 28 27 28 30 31 33 34 32 31 35 36 32 30 33 26 119 193 188 170 192 177 149 182 170 174 176 154 140 129 128 136 141 144 147 167 193 215 227 233 243 253 257 260 260 258 258
241 241 240 240 239 238 238 239 241 243 245 246 247 248 250 252 254 255 258 265 273 281 287 294 299 312 325 338 353 3 10 11 10 11 14 17 19 23 25 27 28 28 28 26 26 27 29 31 32 32 30 34 38 32 32 40 33 25 155 170 160 167 170 178 185 160 161 159 133 118 115 122 127 129 129 138 153 166 193 213 208 205 220 228 236 244 244 243
241 241 241 241 241 240 239 238 239 240 242 245 247 248 249 251 254 256 256 259 264 272 278 284 289 295 304 317 331 344 358 3 4 3 6 11 14 18 22 25 26 26 27 27 26 25 27 29 30 32 28 32 39 35 34 41 40 36 77 169 160 165 175 191 190 162 155 147 128 126 142 146 142 145 140 135 139 149 172 196 200 190 195 204 214 236 243 247
243 242 242 242 241 242 241 241 239 239 239 240 243 246 248 250 252 254 256 258 260 264 271 276 281 285 290 298 309 322 336 346 353 354 357 2 7 12 17 21 23 24 25 26 27 25 25 27 29 32 28 30 39 38 36 39 42 48 63 148 162 171 179 192 196 174 161 154 145 146 162 161 157 159 147 128 123 126 153 188 203 198 207 218 227 263 270 273
246 245 244 243 242 242 242 242 242 241 240 239 240 241 243 247 250 253 255 257 258 260 264 270 275 278 280 285 292 304 314 325 336 343 346 351 358 4 9 16 20 22 23 24 26 26 24 25 27 31 30 30 37 40 37 36 38 49 63 94 144 173 181 189 195 188 174 165 160 160 166 169 174 173 156 136 136 144 211 230 235 223 226 234 246 278 284 286
248 248 247 246 245 244 243 243 243 243 242 241 240 240 240 241 244 248 252 255 257 258 260 264 269 273 274 276 280 289 299 306 315 327 332 337 346 354 0 8 15 18 20 22 25 27 24 24 25 27 30 32 37 41 40 35 34 43 55 70 99 151 182 190 190 191 182 173 169 170 169 172 184 188 183 185 193 219 247 258 264 253 241 242 253 274 286 289
248 248 248 248 248 247 246 245 244 244 244 243 242 241 240 240 240 242 246 251 255 257 259 260 264 268 271 270 272 281 288 291 297 309 315 322 331 340 349 357 7 14 17 19 22 26 26 24 24 23 27 34 38 42 42 37 36 41 48 57 71 102 156 182 183 186 186 181 178 180 182 185 188 195 204 233 245 247 260 280 293 290 272 263 267 274 284 292
249 249 248 248 248 248 248 247 246 246 245 245 244 243 242 241 240 239 241 245 249 254 257 259 260 263 267 268 268 273 277 280 287 293 298 307 315 323 333 344 355 5 12 16 18 23 26 25 26 21 22 33 41 43 42 38 39 46 51 55 61 75 104 148 171 183 189 188 188 190 194 205 214 217 236 279 282 269 262 276 331 348 335 314 316 321 327 341
250 250 249 249 248 248 248 247 247 247 247 247 246 245 244 243 242 241 240 241 244 248 253 257 259 260 262 265 266 267 268 273 280 281 285 293 301 309 316 326 339 353 3 10 14 19 24 26 26 22 19 27 41 45 42 38 42 48 54 57 61 67 80 100 124 152 173 186 195 199 200 214 229 244 284 300 297 277 254 243 60 44 36 35 29 34 41 40
252 251 251 250 249 249 248 247 247 247 247 248 247 247 246 246 244 243 242 242 241 244 248 252 257 259 259 262 263 263 264 268 272 275 278 283 290 296 302 309 319 333 348 1 10 14 20 24 24 23 19 21 35 44 42 39 44 50 54 57 60 65 74 83 90 98 108 121 134 145 157 171 169 53 6 335 338 89 122 111 100 75 59 60 57 54 59 59
252 252 252 251 251 250 249 248 247 247 247 247 247 248 248 247 246 246 245 244 243 242 245 248 253 257 258 259 260 260 263 264 266 270 273 277 281 286 290 295 301 312 327 343 360 8 13 21 22 22 21 19 27 39 40 39 44 51 55 57 60 67 74 77 79 81 85 90 95 99 102 105 103 99 94 93 92 93 93 91 90 79 75 78 66 56 57 59
250 251 251 252 251 251 250 249 248 248 247 247 247 247 248 247 247 247 247 246 246 245 244 246 249 253 255 257 257 258 260 260 261 266 269 272 274 277 280 284 288 294 304 318 338 356 4 14 19 19 20 21 23 31 36 38 42 50 57 59 61 68 75 77 76 76 80 86 92 95 97 102 107 105 96 89 89 90 88 84 82 80 83 85 71 60 60 62
250 250 250 251 251 251 251 250 249 248 247 247 246 247 247 247 247 247 248 247 247 246 245 245 247 249 252 254 255 254 256 259 260 262 265 267 268 270 273 276 281 284 288 296 308 330 348 1 11 15 18 20 21 23 29 34 37 45 57 63 64 69 75 78 78 78 80 82 86 91 98 102 102 99 92 85 86 86 82 79 79 78 78 80 76 66 63 66
250 250 250 250 250 250 250 250 249 248 247 247 246 246 247 247 247 247 248 247 247 247 246 246 246 247 249 251 253 253 254 258 259 258 259 261 263 266 268 271 275 278 280 282 287 298 318 340 356 6 13 16 18 18 21 27 30 36 50 62 68 71 76 79 81 82 83 83 83 87 93 96 95 93 88 84 84 83 79 76 75 76 77 81 79 72 69 71
250 250 250 250 249 249 248 249 249 248 247 247 246 245 246 247 247 247 247 247 248 247 247 247 246 247 247 248 252 253 251 253 256 255 255 258 260 262 265 267 270 273 275 276 276 279 286 303 326 348 3 8 11 11 13 19 24 29 38 53 66 73 78 81 82 83 84 85 85 86 89 92 95 95 89 84 83 84 81 76 75 75 79 83 82 79 79 79
250 250 249 249 249 249 248 248 247 247 246 246 246 245 245 246 247 247 248 249 248 248 247 248 248 248 248 248 249 252 251 250 252 253 254 256 258 259 262 265 267 269 271 272 272 272 273 276 286 311 334 351 1 3 4 8 13 21 27 37 54 68 78 83 85 85 86 86 87 87 88 91 95 97 95 91 89 87 84 78 75 76 77 78 75 74 77 76
249 249 249 249 249 248 248 248 247 246 245 245 245 245 244 244 245 246 248 249 249 248 248 249 249 249 249 248 248 251 251 249 249 251 252 253 255 257 259 261 264 266 267 267 267 269 268 267 268 277 293 310 336 347 353 356 358 7 15 18 28 45 63 80 87 87 89 90 90 91 90 89 91 95 97 99 97 94 91 85 80 78 75 71 67 63 61 58
249 248 248 248 248 248 248 247 247 247 245 243 244 245 244 243 244 244 245 248 249 248 247 247 248 249 248 248 248 249 250 250 249 250 250 251 253 255 256 258 261 263 263 263 264 266 265 264 263 264 269 279 293 314 331 339 339 343 352 354 356 9 24 50 74 83 85 88 94 101 100 91 86 86 91 95 96 96 99 98 91 85 78 71 65 61 59 56
249 248 247 247 247 247 247 247 247 247 246 244 243 243 244 243 243 243 243 245 246 247 247 247 247 248 248 248 248 248 249 249 249 249 249 249 251 253 254 255 256 258 259 261 263 263 262 261 263 261 261 266 271 278 291 310 319 321 323 323 324 330 340 349 16 55 74 72 75 96 111 101 90 87 84 83 83 83 94 99 96 87 79 73 66 59 58 57
250 248 247 247 246 246 246 246 246 247 246 245 244 243 243 243 242 242 242 245 245 246 248 248 248 248 247 247 247 247 248 248 249 249 248 248 249 250 251 251 252 254 256 260 262 261 259 259 261 261 259 260 263 266 269 273 285 301 306 300 296 297 302 309 318 331 2 44 48 60 84 100 103 93 86 91 92 76 74 84 87 81 75 72 64 53 51 54
251 250 249 247 246 246 245 245 246 246 246 245 244 244 243 242 242 242 242 245 245 244 246 248 248 248 248 248 248 247 247 248 248 249 248 247 248 248 249 250 250 251 254 257 258 259 258 258 260 261 258 257 258 262 263 262 262 273 286 285 281 281 283 288 295 305 312 321 343 2 19 59 84 72 64 101 118 111 100 87 82 84 76 67 60 51 42 39
251 250 250 249 247 246 245 244 244 245 246 246 245 244 243 243 242 242 242 244 245 243 243 246 247 248 248 247 247 246 246 247 247 248 247 246 247 247 248 249 249 250 251 253 255 258 259 257 259 260 258 257 258 259 260 259 256 258 267 275 275 273 271 275 278 281 289 292 292 303 314 317 326 357 358 340 164 151 142 127 103 77 68 49 37 31 24 20
251 250 250 249 248 247 246 245 244 244 245 245 244 244 243 243 242 242 242 242 245 243 241 244 245 246 246 246 246 247 246 247 247 247 247 246 246 246 247 248 248 248 249 250 252 255 257 256 257 259 258 257 257 258 258 257 255 252 254 259 264 270 272 270 270 270 276 281 283 286 290 289 290 290 291 292 273 262 259 232 214 261 300 328 334 336 344 352
251 250 249 249 248 248 247 245 244 244 244 244 243 243 243 242 241 242 242 242 244 243 241 243 244 244 244 245 246 245 245 246 246 246 246 245 245 245 245 246 247 247 247 247 248 252 256 256 257 259 258 257 256 257 258 257 255 251 246 245 242 248 262 266 267 266 265 272 279 280 277 275 278 281 282 279 277 279 281 274 256 261 278 292 302 309 315 323
253 251 250 249 248 248 247 246 244 244 244 243 242 242 242 241 240 240 240 240 242 243 241 241 243 243 242 243 244 244 244 245 245 244 244 244 244 244 245 245 246 246 246 246 247 251 254 253 253 255 257 256 256 257 257 257 257 253 247 244 235 226 238 253 258 258 252 256 270 277 276 273 271 273 275 276 276 278 281 283 280 277 280 285 289 297 304 309
256 252 250 249 248 247 247 246 244 244 244 243 242 242 241 240 239 239 239 239 240 242 241 240 241 242 241 241 243 243 244 244 244 243 243 243 242 243 243 244 244 245 246 245 245 246 248 249 250 252 255 257 257 257 257 258 259 255 251 250 242 226 225 237 247 252 248 247 257 267 272 274 272 268 269 272 274 273 274 279 283 285 287 285 284 288 296 302
260 255 252 250 248 247 247 246 244 243 243 243 242 241 241 239 238 237 237 237 237 239 240 240 240 241 241 240 241 242 243 244 245 244 244 243 242 242 243 243 243 244 246 245 243 244 247 248 249 251 254 257 257 257 257 258 258 256 255 255 250 238 230 231 239 245 248 248 247 251 262 271 275 272 270 271 272 269 267 272 279 282 284 287 289 291 293 299
265 260 255 252 249 247 247 246 244 242 242 242 242 240 240 239 237 236 235 236 236 237 238 239 239 239 239 239 239 240 241 243 244 243 244 244 243 242 242 243 243 245 246 245 244 246 248 248 249 252 255 257 257 257 258 258 258 256 256 256 254 249 240 236 238 239 246 252 248 247 257 266 272 272 271 269 272 273 271 273 276 277 280 285 291 293 294 298
270 265 261 255 250 247 246 246 245 243 241 241 241 240 239 238 236 235 235 235 235 235 236 236 237 237 238 237 236 238 239 240 242 242 242 243 242 241 241 242 244 245 245 246 246 247 248 249 251 252 253 255 257 257 257 257 257 256 256 256 256 254 249 245 244 240 243 251 250 247 250 256 265 269 268 264 265 272 275 273 272 274 280 284 287 291 295 300
272 269 265 260 254 249 245 245 245 244 242 240 240 240 239 237 236 235 235 234 234 234 233 234 234 235 235 235 234 235 236 238 240 241 241 242 241 241 241 241 242 243 244 244 245 246 247 247 247 247 248 252 254 254 255 257 258 257 255 255 256 255 252 250 251 247 245 247 246 242 241 246 256 262 265 263 260 264 270 269 269 273 278 280 282 288 295 299
274 271 267 264 259 252 246 243 244 244 242 240 239 239 238 237 235 234 234 234 233 233 232 232 233 233 234 234 233 233 234 235 237 239 240 241 241 240 241 240 240 241 240 240 241 241 242 242 242 243 245 249 251 252 253 255 256 255 253 254 255 255 254 254 255 253 250 248 245 242 238 241 249 255 261 265 263 263 266 267 268 270 273 275 281 288 294 297
276 272 269 266 262 256 249 244 243 243 243 241 239 238 237 236 234 233 233 233 232 232 232 231 231 232 233 233 234 234 234 235 235 236 238 239 240 239 240 241 241 241 240 240 241 242 242 242 242 242 243 246 248 248 248 250 252 253 252 252 254 255 257 256 254 253 252 251 250 248 244 246 249 252 256 263 268 271 272 271 270 269 268 270 277 284 290 293
277 274 270 267 263 259 253 247 243 242 242 241 239 238 236 234 232 232 232 232 232 231 231 230 230 230 231 232 233 234 234 234 235 235 236 238 239 239 239 240 241 241 241 241 242 244 244 244 243 243 243 244 245 246 246 247 250 252 252 252 254 255 254 253 252 252 254 255 256 255 252 250 250 252 256 261 267 271 274 277 277 273 270 271 275 278 284 290
279 275 271 268 264 261 257 251 245 242 242 241 239 238 236 233 231 231 231 231 231 231 230 230 230 230 230 231 232 233 234 234 234 235 235 236 238 238 238 239 239 240 240 240 241 243 243 243 243 243 243 244 246 247 248 248 249 252 252 252 253 252 250 251 252 253 256 257 258 258 256 254 252 253 257 261 264 267 271 275 278 277 277 277 277 276 280 285
280 276 272 269 267 263 259 255 248 242 241 240 239 237 235 233 231 230 230 230 231 230 230 230 229 229 230 231 231 232 233 233 233 234 234 235 237 238 238 239 239 240 240 240 240 241 241 240 240 241 241 242 244 246 247 246 247 250 251 251 252 252 251 253 254 254 256 257 257 257 257 257 256 256 258 261 263 265 268 270 273 276 277 277 277 277 278 280
280 277 273 271 269 265 260 257 252 244 240 239 238 236 234 232 230 229 229 229 229 229 229 229 228 228 228 229 231 231 232 232 233 233 233 233 234 237 238 238 239 239 240 240 240 241 241 241 241 241 241 241 244 245 245 245 247 250 252 252 254 255 254 254 255 253 254 255 255 256 258 258 258 257 258 260 262 263 265 267 270 273 274 275 276 277 278 280
279 277 274 272 270 267 263 260 255 247 240 238 238 235 232 231 230 228 228 228 228 228 228 228 227 227 227 228 229 231 231 232 232 232 231 231 232 235 237 237 237 238 238 239 240 241 241 242 242 243 242 242 244 245 246 247 250 252 254 254 255 255 255 255 254 253 252 253 253 255 257 257 257 255 256 258 260 262 263 265 268 270 272 276 278 278 280 283
277 276 275 272 270 268 265 261 257 249 241 238 237 234 231 231 230 229 228 228 227 226 227 227 227 226 225 226 228 229 230 231 232 231 231 230 229 232 235 236 235 236 237 238 239 240 241 242 243 243 243 243 244 246 249 249 250 252 253 253 253 253 254 255 255 253 252 253 254 254 255 256 257 256 255 255 257 260 262 264 266 268 272 275 278 279 281 282
274 274 274 272 270 268 265 262 258 252 244 239 237 234 231 230 230 229 228 227 226 225 226 227 226 226 225 226 227 228 229 229 230 231 230 229 228 230 233 235 235 235 236 237 238 239 241 242 243 243 243 244 244 246 248 249 249 250 250 251 251 251 252 255 257 256 255 255 254 253 253 254 257 258 257 256 256 257 260 262 263 265 270 273 275 277 277 278
271 271 271 270 269 268 266 264 261 255 248 242 237 234 232 230 230 229 228 227 225 224 225 226 226 225 225 226 226 227 228 228 229 230 230 229 228 228 231 234 235 234 234 235 237 238 239 240 241 242 243 244 244 243 245 248 248 248 249 250 251 252 254 256 257 257 256 255 255 255 256 256 257 258 258 256 256 256 258 260 261 263 267 270 272 274 274 275
268 267 268 268 268 269 268 267 263 257 252 245 238 234 233 231 230 229 227 226 224 223 223 224 224 224 225 225 225 226 227 228 228 228 229 228 228 227 229 231 233 233 233 233 235 236 237 238 240 242 242 242 242 242 243 247 248 249 250 251 253 254 255 256 257 258 257 257 258 259 259 258 257 257 258 257 257 256 257 259 260 261 263 267 270 271 272 273
265 264 265 265 267 269 269 268 264 259 254 247 239 236 235 232 231 229 226 225 223 222 222 223 223 224 225 225 225 225 226 227 227 227 227 227 227 228 228 230 233 234 233 233 234 236 238 239 240 242 242 242 242 243 245 249 251 252 252 253 254 254 254 256 257 259 259 259 260 260 259 257 257 257 259 259 259 257 257 258 260 261 261 264 268 270 271 272
262 262 263 263 265 267 266 265 263 260 255 248 241 239 237 235 234 230 226 224 223 221 221 221 222 223 225 225 225 225 225 226 227 227 226 225 225 227 229 230 232 234 234 234 234 236 237 238 239 242 243 243 244 246 248 251 253 253 251 251 253 254 254 254 255 256 258 260 259 258 257 257 258 260 261 261 260 260 260 261 262 262 263 265 268 270 272 273
260 261 262 262 261 262 262 263 263 260 256 250 246 243 239 237 236 230 224 223 222 220 219 220 220 221 223 225 225 225 225 225 226 227 227 225 224 226 228 229 231 234 235 235 236 237 237 238 239 241 243 243 243 243 244 246 249 250 250 248 249 251 251 251 251 253 256 258 258 259 259 260 261 263 264 263 263 263 264 265 265 266 267 268 269 270 272 274
261 260 261 260 259 260 261 262 262 261 257 251 247 245 240 239 237 230 223 220 220 219 218 218 218 220 222 224 224 224 225 225 226 227 228 227 226 226 227 229 231 233 235 236 237 238 238 239 240 242 243 243 242 242 242 244 246 249 251 250 250 251 252 253 254 255 256 258 260 262 262 262 263 264 265 265 265 265 265 266 268 269 269 269 268 270 272 274
261 260 260 260 259 258 259 260 260 260 257 253 249 247 242 240 239 231 223 219 218 218 218 217 218 219 220 222 223 223 224 224 224 226 227 227 227 227 227 228 230 231 234 237 238 239 240 240 241 242 243 244 244 243 244 245 246 248 250 252 253 254 255 256 257 257 258 259 260 261 262 262 263 264 265 266 266 266 266 268 270 271 271 270 269 270 271 273
260 260 260 259 258 257 257 257 258 258 257 253 250 246 242 241 240 233 224 219 217 217 217 217 218 219 219 220 222 222 222 222 223 225 226 226 228 229 228 228 229 230 231 234 237 239 240 240 241 242 243 244 244 243 244 245 246 247 248 250 252 254 256 257 258 258 258 260 261 262 263 264 265 266 267 267 266 266 268 270 271 271 271 272 272 272 272 272
258 258 258 257 257 255 254 255 256 256 255 252 249 246 243 242 242 236 227 220 216 215 215 215 217 219 219 220 222 221 221 222 223 224 225 225 226 229 229 229 230 230 230 232 235 237 238 239 240 242 243 243 244 244 244 246 247 247 248 250 252 254 256 257 258 258 258 259 261 263 265 267 268 268 267 267 267 268 270 271 270 270 271 272 273 274 274 273
255 254 254 254 254 253 252 252 253 253 253 251 248 245 243 241 241 238 230 223 217 215 214 214 215 218 220 221 222 222 221 222 223 223 224 224 224 225 227 229 230 230 231 233 234 235 237 237 238 240 242 243 244 245 245 246 248 248 248 250 252 253 254 255 256 256 257 258 260 263 265 267 268 267 266 267 269 270 271 271 271 271 272 273 273 274 275 276
252 251 251 251 251 251 250 250 250 251 251 249 246 244 242 240 239 236 231 225 219 217 216 215 215 217 218 220 221 223 222 221 222 223 223 224 224 224 225 228 228 229 231 233 234 235 237 238 239 240 242 243 244 246 246 246 247 248 248 249 251 252 253 254 256 257 258 259 261 263 265 266 266 266 267 268 269 269 269 270 271 272 272 272 272 273 275 276
Height
11017 11018 11019 11019 11020 11021 11021 11022 11022 11022 11023 11023 11023 11024 11024 11024 11024 11024 11024 11024 11024 11024 11024 11024 11024 11023 11023 11022 11022 11021 11020 11019 11017 11016 11014 11013 11011 11010 11008 11006 11004 11002 11001 10999 10997 10995 10993 10991 10989 10987 10984 10982 10980 10979 10978 10977 10977 10976 10977 10979 10980 10981 10981 10981 10983 10983 10983 10982 10982 10983 10984 10985 10986 10986 10987 10987 10988 10988 10988 10989 10990 10991 10992 10993 10994 10994 10995 10996
11014 11015 11016 11017 11018 11019 11019 11020 11020 11021 11021 11022 11022 11022 11023 11023 11023 11023 11023 11023 11023 11023 11023 11023 11023 11023 11023 11023 11022 11021 11021 11020 11018 11017 11016 11014 11013 11011 11010 11008 11006 11004 11003 11001 10999 10997 10995 10993 10990 10988 10986 10983 10981 10979 10978 10977 10976 10976 10976 10978 10979 10980 10981 10981 10982 10983 10983 10982 10982 10983 10984 10984 10985 10986 10987 10987 10988 10988 10988 10989 10989 10990 10991 10992 10993 10993 10994 10994
11012 11013 11014 11014 11015 11016 11017 11018 11019 11019 11020 11020 11021 11021 11022 11022 11023 11023 11022 11022 11022 11022 11023 11023 11023 11023 11023 11023 11023 11022 11021 11020 11019 11018 11017 11016 11014 11013 11011 11009 11008 11006 11004 11002 11001 10999 10997 10995 10992 10990 10988 10985 10981 10980 10980 10978 10977 10976 10976 10977 10978 10980 10980 10981 10982 10982 10982 10982 10981 10983 10984 10984 10985 10986 10987 10988 10989 10989 10989 10990 10990 10990 10991 10991 10992 10993 10993 10994
11009 11010 11011 11012 11013 11014 11014 11015 11016 11017 11018 11019 11019 11020 11021 11021 11021 11022 11022 11022 11021 11021 11022 11022 11022 11022 11022 11023 11022 11022 11022 11021 11020 11019 11018 11017 11015 11014 11012 11011 11009 11008 11006 11004 11002 11000 10998 10996 10994 10992 10990 10987 10982 10982 10982 10978 10978 10977 10976 10977 10978 10980 10981 10982 10982 10982 10982 10982 10982 10983 10984 10984 10985 10987 10988 10989 10990 10990 10991 10991 10990 10990 10991 10991 10991 10992 10992 10993
11005 11006 11007 11008 11010 11011 11012 11013 11014 11015 11015 11016 11017 11018 11019 11020 11020 11020 11021 11021 11021 11021 11021 11021 11021 11021 11022 11022 11022 11022 11022 11021 11021 11020 11019 11017 11016 11015 11014 11012 11011 11009 11007 11006 11004 11002 11000 10998 10996 10994 10992 10989 10984 10983 10983 10979 10979 10979 10977 10977 10978 10981 10981 10982 10982 10982 10982 10983 10983 10983 10984 10985 10986 10988 10989 10990 10991 10991 10992 10992 10992 10991 10991 10991 10991 10992 10992 10993
11002 11003 11004 11005 11006 11007 11008 11010 11011 11012 11013 11014 11015 11016 11017 11018 11018 11019 11019 11020 11020 11020 11020 11020 11020 11020 11021 11021 11021 11021 11021 11021 11021 11020 11019 11018 11017 11016 11015 11013 11012 11010 11008 11007 11005 11004 11002 11000 10999 10996 10994 10992 10987 10985 10983 10982 10983 10983 10981 10979 10979 10981 10982 10982 10983 10982 10982 10983 10983 10984 10985 10986 10986 10988 10989 10991 10991 10992 10992 10992 10992 10992 10991 10992 10992 10992 10992 10992
10998 10999 11000 11001 11002 11004 11005 11006 11007 11008 11009 11010 11012 11013 11014 11015 11016 11017 11018 11018 11019 11019 11019 11019 11019 11019 11019 11020 11020 11021 11021 11021 11021 11020 11019 11018 11017 11016 11015 11014 11013 11011 11010 11008 11007 11005 11003 11002 11000 10998 10997 10994 10990 10986 10985 10986 10988 10986 10984 10982 10981 10982 10982 10983 10983 10983 10983 10983 10984 10985 10985 10986 10987 10988 10989 10990 10991 10992 10992 10992 10992 10992 10992 10992 10992 10992 10992 10992
10994 10995 10996 10997 10998 11000 11001 11002 11003 11005 11006 11007 11008 11009 11011 11012 11013 11015 11015 11016 11017 11017 11018 11018 11017 11017 11018 11019 11019 11020 11020 11020 11020 11020 11019 11018 11017 11017 11016 11015 11014 11012 11011 11009 11008 11006 11005 11003 11002 11000 10999 10996 10993 10990 10989 10990 10991 10989 10986 10984 10982 10982 10982 10983 10984 10984 10983 10984 10984 10985 10986 10987 10987 10988 10989 10990 10991 10991 10992 10992 10992 10992 10992 10992 10992 10992 10992 10992
10990 10991 10992 10993 10994 10996 10997 10998 10999 11000 11002 11003 11005 11006 11007 11008 11010 11012 11013 11014 11014 11015 11016 11016 11016 11016 11016 11017 11018 11019 11019 11019 11019 11019 11019 11018 11017 11017 11016 11015 11014 11013 11012 11010 11009 11008 11007 11005 11003 11002 11002 10999 10996 10993 10992 10994 10994 10991 10988 10985 10984 10983 10983 10984 10984 10984 10985 10985 10986 10986 10987 10987 10987 10988 10989 10990 10990 10991 10991 10991 10991 10991 10992 10992 10992 10992 10992 10991
10986 10987 10988 10989 10990 10992 10993 10994 10995 10996 10997 10999 11000 11002 11003 11005 11006 11008 11010 11011 11012 11013 11013 11014 11014 11014 11014 11015 11017 11017 11017 11017 11018 11018 11018 11017 11017 11016 11016 11016 11015 11014 11012 11011 11009 11008 11008 11007 11005 11004 11004 11001 10998 10995 10996 10998 10997 10993 10990 10987 10986 10985 10985 10985 10985 10985 10985 10986 10987 10987 10987 10987 10987 10988 10989 10989 10989 10990 10990 10990 10991 10991 10991 10991 10991 10991 10991 10990
10981 10982 10983 10984 10986 10987 10988 10990 10991 10992 10993 10995 10996 10997 10999 11001 11002 11004 11006 11007 11009 11010 11011 11011 11011 11012 11012 11012 11015 11016 11015 11016 11017 11017 11017 11017 11016 11016 11015 11015 11015 11014 11013 11012 11010 11009 11009 11008 11006 11006 11005 11003 11000 10997 10999 11001 10999 10995 10992 10990 10989 10988 10987 10986 10985 10985 10986 10986 10987 10987 10988 10988 10988 10988 10988 10988 10988 10989 10989 10989 10990 10991 10991 10991 10991 10991 10990 10990
10975 10977 10978 10979 10981 10982 10984 10985 10986 10988 10989 10990 10992 10993 10994 10996 10998 11000 11002 11003 11005 11007 11008 11008 11008 11009 11010 11010 11012 11013 11014 11015 11015 11015 11016 11016 11016 11015 11015 11015 11014 11014 11013 11012 11011 11009 11009 11009 11008 11006 11006 11005 11002 10999 11002 11003 11000 10997 10994 10993 10991 10990 10989 10988 10987 10987 10987 10987 10987 10988 10988 10988 10988 10988 10988 10988 10988 10988 10988 10989 10990 10990 10990 10991 10991 10991 10991 10990
10969 10970 10972 10974 10975 10977 10978 10980 10982 10983 10984 10986 10987 10989 10990 10992 10994 10996 10998 10999 11001 11003 11004 11005 11006 11005 11006 11008 11009 11010 11012 11013 11013 11013 11014 11015 11015 11014 11014 11014 11014 11014 11013 11013 11012 11010 11009 11009 11008 11007 11006 11005 11003 11002 11003 11004 11002 10999 10997 10996 10994 10992 10991 10990 10989 10989 10989 10988 10988 10988 10988 10989 10989 10989 10989 10989 10988 10988 10988 10989 10989 10990 10990 10991 10991 10991 10990 10990
10961 10963 10965 10967 10969 10971 10972 10974 10976 10978 10979 10981 10983 10984 10985 10987 10990 10992 10993 10995 10997 10999 11001 11002 11002 11002 11003 11004 11005 11008 11010 11009 11011 11012 11012 11013 11013 11013 11013 11012 11013 11013 11013 11013 11012 11011 11010 11009 11009 11008 11007 11006 11005 11004 11004 11004 11004 11002 11000 10998 10997 10995 10994 10992 10991 10991 10991 10990 10989 10989 10990 10990 10990 10990 10990 10989 10989 10989 10989 10989 10989 10989 10990 10991 10992 10991 10991 10990
10953 10955 10957 10959 10962 10964 10966 10968 10970 10972 10974 10976 10978 10979 10981 10983 10986 10988 10989 10991 10992 10994 10996 10997 10998 10998 10999 11000 11001 11004 11006 11007 11009 11010 11009 11010 11011 11011 11011 11011 11011 11012 11012 11012 11012 11011 11010 11009 11009 11008 11008 11006 11006 11006 11005 11005 11005 11004 11002 11001 11000 10998 10996 10995 10994 10993 10993 10992 10991 10990 10991 10991 10992 10992 10991 10990 10990 10989 10989 10989 10989 10989 10990 10991 10992 10992 10992 10991
10945 10947 10949 10951 10954 10956 10958 10961 10963 10965 10968 10970 10972 10974 10976 10978 10981 10983 10985 10986 10987 10989 10991 10992 10994 10994 10995 10996 10997 11000 11003 11004 11006 11007 11007 11008 11009 11010 11010 11010 11010 11010 11011 11011 11011 11011 11010 11009 11009 11008 11008 11007 11006 11007 11006 11006 11006 11005 11004 11003 11002 11000 10999 10997 10996 10996 10995 10994 10993 10992 10993 10993 10993 10993 10992 10992 10991 10991 10991 10990 10990 10990 10991 10991 10992 10992 10992 10992
10935 10938 10940 10942 10945 10948 10951 10953 10955 10958 10961 10963 10966 10969 10971 10973 10976 10979 10979 10981 10983 10985 10986 10987 10989 10990 10991 10993 10993 10995 10999 11001 11002 11002 11004 11005 11006 11007 11007 11008 11009 11008 11009 11009 11010 11010 11010 11009 11009 11008 11008 11007 11007 11007 11007 11006 11006 11006 11005 11004 11003 11002 11001 11000 10999 10998 10997 10996 10995 10995 10994 10994 10994 10994 10994 10993 10993 10992 10992 10992 10991 10992 10992 10992 10993 10993 10993 10993
10926 10928 10931 10933 10936 10939 10942 10944 10947 10949 10952 10956 10959 10962 10965 10968 10971 10973 10975 10977 10978 10980 10982 10983 10984 10985 10986 10989 10990 10990 10994 10998 10998 10998 11001 11002 11003 11004 11005 11006 11006 11007 11007 11007 11008 11009 11009 11009 11008 11008 11007 11007 11007 11007 11007 11007 11006 11006 11006 11005 11004 11004 11003 11002 11001 11000 10999 10998 10997 10997 10996 10996 10996 10995 10995 10995 10994 10994 10994 10993 10992 10993 10993 10993 10993 10994 10994 10994
10916 10918 10921 10923 10926 10929 10932 10935 10938 10939 10943 10948 10952 10954 10959 10963 10966 10968 10971 10972 10972 10975 10977 10979 10980 10981 10982 10985 10986 10986 10988 10992 10993 10994 10997 10999 11000 11001 11002 11003 11004 11005 11004 11005 11006 11006 11007 11007 11007 11007 11007 11006 11006 11006 11007 11006 11006 11006 11005 11005 11005 11005 11004 11003 11002 11001 11000 10999 10999 10999 10998 10998 10998 10997 10996 10996 10995 10995 10995 10994 10993 10993 10993 10993 10993 10994 10994 10995
10906 10908 10911 10913 10916 10919 10923 10926 10928 10929 10933 10940 10945 10947 10952 10957 10959 10962 10965 10964 10964 10968 10971 10973 10974 10975 10977 10979 10981 10982 10984 10987 10988 10990 10993 10995 10996 10997 10999 11001 11001 11002 11001 11002 11003 11004 11005 11005 11005 11006 11005 11005 11005 11005 11006 11006 11006 11005 11005 11005 11005 11004 11004 11004 11003 11002 11001 11000 11000 11000 11000 10999 10999 10998 10997 10996 10996 10995 10995 10995 10994 10994 10994 10994 10994 10994 10994 10994
10895 10897 10900 10903 10906 10909 10913 10916 10918 10919 10922 10930 10936 10939 10945 10949 10951 10954 10957 10956 10957 10962 10965 10967 10968 10969 10972 10974 10976 10977 10978 10981 10983 10985 10988 10990 10992 10994 10995 10997 10998 10998 10998 11000 11001 11001 11001 11003 11003 11004 11004 11004 11004 11004 11004 11005 11005 11004 11004 11004 11004 11004 11004 11003 11003 11002 11001 11001 11000 11000 11000 10999 10999 10999 10998 10997 10996 10996 10995 10995 10995 10994 10994 10994 10994 10994 10994 10994
10884 10886 10889 10892 10895 10899 10902 10906 10908 10909 10912 10920 10926 10932 10936 10939 10941 10946 10951 10950 10952 10958 10961 10962 10963 10963 10966 10968 10970 10972 10974 10976 10977 10979 10983 10986 10988 10990 10990 10992 10993 10993 10995 10997 10998 10997 10998 11000 11000 11001 11002 11002 11002 11002 11003 11003 11003 11003 11003 11003 11004 11004 11004 11003 11003 11002 11001 11001 11001 11000 11000 10999 10999 10998 10998 10998 10997 10996 10995 10995 10994 10994 10994 10994 10994 10994 10994 10994
10872 10874 10878 10881 10884 10888 10892 10896 10898 10899 10902 10909 10917 10923 10925 10927 10933 10941 10946 10945 10944 10951 10954 10954 10956 10958 10961 10964 10964 10967 10969 10970 10972 10973 10977 10981 10983 10984 10985 10987 10988 10989 10993 10994 10993 10993 10994 10997 10997 10998 10999 11000 11000 11001 11001 11001 11001 11002 11002 11002 11003 11003 11003 11003 11003 11002 11001 11001 11001 11000 11000 10999 10999 10998 10998 10997 10997 10997 10996 10995 10994 10994 10994 10994 10994 10994 10994 10994
10859 10862 10866 10869 10873 10876 10880 10884 10888 10890 10892 10899 10908 10911 10913 10919 10928 10934 10938 10938 10934 10940 10947 10947 10950 10953 10954 10956 10957 10961 10964 10964 10966 10967 10971 10976 10977 10979 10981 10982 10983 10986 10989 10989 10989 10989 10990 10993 10994 10994 10995 10997 10998 10998 10999 10999 10999 11000 11000 11001 11001 11001 11001 11001 11001 11001 11000 11000 11000 11000 10999 10999 10998 10998 10997 10996 10996 10996 10996 10995 10994 10994 10994 10994 10994 10994 10994 10994
10846 10850 10853 10857 10861 10864 10868 10873 10877 10880 10881 10889 10896 10898 10903 10912 10920 10924 10928 10930 10926 10930 10940 10942 10942 10943 10944 10949 10953 10955 10957 10958 10960 10962 10965 10969 10971 10973 10975 10976 10979 10982 10983 10984 10985 10985 10986 10989 10991 10991 10992 10993 10995 10995 10996 10997 10997 10998 10998 10999 10999 11000 11000 10999 11000 11000 11000 10999 10999 10999 10999 10999 10998 10997 10997 10996 10995 10994 10994 10995 10994 10994 10993 10994 10994 10993 10993 10993
10834 10837 10840 10845 10848 10850 10855 10860 10866 10870 10871 10878 10884 10886 10894 10903 10910 10914 10917 10922 10919 10921 10933 10934 10931 10934 10938 10944 10946 10946 10950 10952 10952 10955 10959 10962 10965 10967 10968 10971 10975 10976 10977 10979 10981 10981 10982 10986 10988 10987 10987 10989 10991 10992 10993 10993 10994 10995 10996 10997 10998 10998 10998 10998 10998 10999 10999 10998 10997 10998 10998 10998 10998 10997 10996 10995 10994 10993 10993 10993 10993 10993 10993 10992 10992 10992 10992 10992
10823 10825 10829 10832 10835 10837 10840 10847 10855 10859 10860 10866 10871 10875 10885 10894 10900 10904 10907 10914 10911 10911 10922 10925 10921 10926 10932 10935 10936 10939 10945 10944 10943 10949 10952 10954 10958 10960 10963 10966 10969 10970 10971 10974 10978 10979 10977 10980 10983 10982 10983 10985 10987 10988 10988 10990 10991 10991 10993 10994 10995 10997 10997 10997 10997 10998 10998 10998 10996 10996 10997 10997 10997 10997 10996 10995 10994 10993 10992 10991 10992 10992 10992 10991 10991 10990 10990 10990
10812 10814 10818 10819 10823 10825 10825 10833 10843 10848 10848 10853 10860 10866 10873 10883 10889 10892 10899 10904 10901 10901 10910 10914 10914 10917 10923 10927 10930 10934 10937 10934 10936 10942 10944 10946 10951 10954 10958 10961 10962 10963 10965 10970 10974 10972 10970 10975 10979 10978 10979 10981 10983 10983 10985 10987 10986 10987 10989 10990 10991 10994 10995 10995 10995 10996 10997 10997 10996 10995 10995 10995 10996 10996 10995 10994 10993 10993 10992 10991 10990 10990 10990 10990 10989 10989 10989 10988
10802 10804 10807 10807 10811 10813 10811 10819 10830 10835 10836 10840 10849 10856 10861 10871 10877 10882 10890 10892 10890 10893 10899 10903 10907 10908 10914 10921 10924 10926 10927 10927 10931 10935 10936 10939 10944 10948 10952 10954 10955 10956 10960 10966 10967 10965 10967 10972 10973 10974 10976 10977 10978 10979 10981 10983 10981 10982 10985 10986 10987 10990 10991 10992 10993 10993 10994 10995 10995 10995 10994 10993 10993 10993 10994 10994 10992 10992 10991 10990 10989 10989 10989 10988 10987 10987 10988 10987
10792 10794 10796 10794 10798 10801 10801 10807 10816 10821 10824 10829 10837 10843 10849 10858 10865 10873 10881 10879 10880 10887 10889 10892 10896 10898 10905 10914 10916 10916 10919 10920 10922 10926 10929 10932 10936 10942 10945 10947 10948 10951 10955 10960 10961 10961 10964 10966 10967 10972 10973 10972 10972 10974 10978 10978 10976 10979 10981 10981 10982 10985 10987 10989 10989 10990 10991 10992 10993 10993 10993 10992 10990 10990 10992 10992 10991 10991 10991 10990 10989 10988 10988 10987 10985 10984 10985 10985
10783 10785 10785 10783 10786 10788 10791 10797 10802 10805 10813 10819 10823 10829 10838 10845 10854 10866 10868 10866 10872 10877 10876 10878 10883 10889 10896 10902 10906 10907 10910 10912 10913 10918 10922 10923 10928 10934 10938 10941 10943 10947 10951 10955 10957 10956 10958 10962 10965 10969 10968 10966 10967 10970 10973 10972 10971 10975 10977 10976 10978 10980 10982 10984 10985 10987 10988 10988 10989 10990 10991 10991 10990 10988 10990 10990 10990 10989 10989 10989 10988 10988 10987 10987 10985 10982 10982 10983
10774 10775 10774 10773 10773 10775 10781 10788 10790 10791 10800 10808 10810 10817 10825 10832 10846 10856 10852 10854 10862 10860 10860 10865 10870 10878 10883 10889 10896 10897 10899 10903 10905 10910 10914 10915 10921 10928 10931 10935 10938 10941 10946 10950 10951 10950 10953 10958 10960 10962 10962 10961 10962 10965 10968 10967 10967 10970 10972 10972 10973 10974 10977 10979 10980 10982 10984 10984 10985 10987 10989 10990 10989 10987 10988 10988 10989 10988 10987 10987 10987 10987 10987 10986 10984 10982 10980 10980
10765 10765 10764 10763 10762 10763 10771 10778 10780 10781 10788 10794 10799 10805 10812 10823 10839 10840 10835 10843 10846 10842 10848 10855 10859 10866 10872 10878 10885 10886 10889 10895 10898 10902 10906 10907 10913 10920 10923 10926 10930 10934 10939 10942 10942 10943 10946 10950 10953 10956 10957 10956 10957 10960 10963 10962 10961 10964 10966 10967 10968 10968 10972 10975 10976 10977 10979 10980 10981 10984 10986 10987 10987 10986 10986 10986 10986 10986 10985 10984 10985 10985 10985 10984 10983 10981 10979 10977
10755 10755 10753 10752 10752 10753 10760 10768 10770 10771 10775 10781 10788 10793 10801 10815 10825 10821 10822 10829 10827 10828 10838 10843 10847 10857 10865 10870 10875 10878 10883 10888 10890 10894 10897 10899 10905 10912 10916 10919 10924 10928 10931 10934 10935 10937 10940 10945 10949 10951 10951 10951 10952 10954 10957 10955 10954 10957 10961 10962 10963 10965 10968 10970 10970 10971 10973 10975 10977 10979 10982 10983 10982 10983 10983 10983 10983 10982 10981 10981 10982 10983 10982 10983 10983 10981 10978 10976
10745 10745 10743 10741 10742 10745 10751 10757 10760 10761 10764 10770 10777 10784 10793 10802 10804 10805 10809 10810 10809 10816 10823 10828 10839 10850 10857 10862 10867 10871 10876 10879 10882 10885 10888 10893 10898 10905 10909 10912 10917 10921 10923 10928 10931 10932 10935 10941 10943 10943 10944 10944 10945 10947 10949 10949 10949 10952 10955 10958 10960 10961 10963 10963 10964 10966 10968 10970 10973 10975 10977 10978 10978 10979 10980 10979 10979 10979 10978 10977 10977 10977 10978 10980 10980 10979 10977 10975
10734 10735 10732 10730 10733 10738 10742 10744 10748 10753 10755 10759 10768 10775 10780 10783 10786 10790 10792 10792 10797 10804 10811 10823 10836 10843 10849 10854 10858 10863 10867 10870 10873 10876 10882 10888 10890 10895 10901 10904 10909 10913 10916 10922 10924 10924 10929 10934 10934 10935 10938 10939 10939 10939 10942 10944 10945 10945 10950 10955 10954 10954 10956 10957 10959 10963 10964 10966 10969 10969 10970 10972 10973 10975 10976 10975 10976 10976 10975 10975 10972 10971 10973 10975 10975 10976 10976 10974
10724 10724 10722 10722 10725 10729 10731 10732 10737 10744 10746 10750 10758 10763 10765 10769 10773 10774 10774 10777 10784 10792 10804 10819 10827 10834 10841 10846 10850 10853 10857 10860 10864 10868 10876 10882 10884 10888 10894 10898 10902 10906 10910 10914 10915 10917 10921 10924 10924 10926 10931 10932 10931 10932 10935 10938 10938 10940 10946 10949 10946 10947 10952 10953 10955 10959 10960 10961 10963 10963 10964 10967 10969 10971 10971 10971 10971 10972 10972 10972 10969 10967 10968 10969 10970 10972 10973 10972
10715 10713 10713 10715 10716 10717 10721 10724 10727 10732 10736 10741 10746 10749 10753 10756 10756 10755 10756 10762 10771 10783 10798 10808 10815 10824 10831 10835 10839 10842 10845 10850 10854 10860 10868 10874 10879 10882 10885 10890 10894 10899 10902 10904 10906 10909 10912 10914 10916 10919 10924 10925 10924 10924 10929 10932 10933 10936 10941 10941 10940 10944 10947 10948 10951 10953 10954 10955 10957 10958 10959 10962 10964 10966 10967 10966 10967 10968 10968 10968 10966 10963 10963 10964 10965 10966 10967 10966
10704 10703 10704 10708 10706 10707 10712 10715 10716 10721 10727 10731 10733 10737 10742 10741 10739 10740 10743 10750 10763 10778 10789 10795 10803 10812 10817 10823 10827 10829 10835 10839 10843 10851 10859 10867 10874 10874 10874 10881 10886 10890 10892 10894 10898 10902 10903 10907 10908 10911 10917 10918 10916 10919 10925 10928 10929 10931 10934 10936 10937 10940 10941 10941 10944 10947 10948 10950 10951 10953 10954 10957 10959 10961 10962 10963 10963 10963 10963 10963 10962 10959 10959 10960 10959 10959 10961 10960
10694 10693 10696 10699 10697 10698 10703 10705 10706 10710 10717 10720 10721 10725 10728 10728 10728 10729 10732 10740 10755 10770 10777 10781 10790 10798 10805 10813 10815 10817 10824 10828 10832 10842 10850 10858 10865 10865 10865 10870 10876 10881 10882 10885 10890 10892 10895 10899 10900 10903 10907 10908 10911 10918 10921 10921 10922 10924 10928 10931 10933 10934 10933 10933 10937 10941 10942 10943 10945 10947 10949 10951 10953 10956 10957 10958 10959 10959 10959 10958 10956 10955 10956 10955 10953 10953 10955 10954
10685 10684 10687 10689 10687 10689 10693 10695 10698 10701 10707 10709 10709 10712 10715 10716 10716 10717 10723 10733 10747 10760 10766 10769 10778 10789 10797 10802 10803 10806 10813 10818 10824 10833 10841 10849 10856 10859 10859 10862 10867 10870 10872 10875 10882 10886 10890 10893 10893 10894 10898 10901 10910 10916 10913 10910 10914 10918 10921 10924 10926 10927 10927 10927 10930 10934 10936 10937 10938 10940 10942 10945 10948 10950 10951 10953 10954 10954 10954 10952 10951 10953 10953 10951 10948 10948 10950 10949
10675 10675 10678 10679 10678 10681 10684 10687 10689 10692 10697 10698 10698 10702 10705 10707 10707 10708 10715 10726 10738 10749 10753 10758 10770 10780 10786 10790 10794 10798 10803 10809 10817 10824 10832 10841 10849 10853 10853 10852 10853 10857 10862 10868 10875 10878 10881 10883 10882 10884 10891 10897 10904 10908 10903 10900 10906 10912 10915 10918 10919 10920 10922 10922 10925 10927 10928 10930 10931 10932 10937 10941 10943 10944 10945 10947 10948 10949 10948 10946 10947 10950 10950 10946 10945 10944 10944 10944
10664 10664 10669 10670 10669 10672 10676 10678 10680 10683 10686 10686 10688 10693 10695 10697 10698 10700 10707 10718 10728 10736 10740 10748 10759 10768 10772 10777 10782 10786 10791 10798 10807 10814 10822 10832 10840 10844 10843 10839 10839 10844 10852 10861 10866 10868 10869 10872 10875 10877 10884 10891 10893 10897 10896 10893 10898 10905 10910 10913 10913 10915 10917 10917 10918 10920 10920 10922 10925 10926 10931 10936 10938 10937 10937 10940 10942 10943 10941 10940 10943 10947 10946 10943 10941 10940 10939 10938
10653 10652 10658 10662 10662 10665 10668 10667 10668 10671 10674 10675 10679 10683 10685 10688 10690 10691 10699 10709 10716 10723 10730 10738 10748 10756 10759 10763 10769 10775 10782 10789 10797 10804 10812 10822 10830 10831 10831 10831 10830 10834 10846 10855 10859 10860 10860 10866 10871 10869 10874 10883 10886 10891 10893 10890 10894 10902 10906 10907 10907 10908 10910 10910 10912 10912 10912 10915 10919 10920 10923 10928 10930 10930 10931 10934 10936 10935 10934 10935 10939 10942 10941 10940 10937 10934 10933 10932
10643 10641 10647 10655 10656 10656 10656 10654 10655 10659 10663 10666 10671 10675 10677 10680 10680 10682 10691 10699 10704 10712 10720 10728 10739 10745 10747 10751 10759 10767 10774 10781 10788 10794 10802 10811 10817 10818 10820 10823 10824 10829 10840 10848 10850 10849 10851 10859 10863 10861 10866 10877 10883 10889 10892 10889 10888 10892 10897 10900 10900 10900 10902 10904 10905 10904 10904 10907 10910 10911 10915 10919 10923 10924 10925 10927 10928 10927 10927 10930 10934 10935 10935 10935 10933 10928 10925 10924
10633 10631 10636 10644 10646 10645 10644 10642 10645 10650 10654 10659 10663 10665 10667 10670 10669 10672 10681 10689 10696 10703 10710 10717 10726 10730 10734 10740 10748 10756 10764 10773 10781 10786 10792 10798 10804 10807 10810 10815 10820 10827 10834 10839 10839 10839 10843 10851 10854 10854 10860 10870 10877 10882 10884 10881 10877 10879 10885 10892 10892 10891 10891 10893 10895 10898 10899 10898 10899 10903 10907 10912 10915 10918 10919 10919 10920 10920 10920 10922 10926 10928 10929 10930 10927 10922 10919 10918
10622 10622 10625 10630 10633 10635 10634 10632 10636 10641 10644 10649 10653 10654 10658 10660 10659 10663 10671 10678 10685 10690 10696 10704 10710 10716 10722 10728 10736 10745 10754 10764 10773 10777 10779 10788 10796 10800 10804 10811 10819 10824 10826 10828 10829 10830 10836 10843 10847 10851 10855 10860 10867 10872 10872 10872 10872 10872 10876 10881 10883 10882 10882 10884 10889 10894 10893 10890 10892 10896 10899 10904 10908 10911 10912 10912 10913 10913 10912 10915 10919 10920 10923 10923 10919 10916 10914 10911
10608 10610 10612 10615 10620 10626 10624 10621 10625 10631 10634 10639 10643 10645 10649 10651 10651 10655 10661 10666 10671 10678 10686 10695 10700 10704 10711 10716 10724 10733 10742 10752 10761 10762 10767 10780 10789 10793 10801 10808 10813 10816 10818 10820 10821 10823 10829 10837 10842 10846 10847 10849 10857 10863 10864 10865 10867 10870 10871 10871 10872 10873 10874 10877 10883 10886 10884 10883 10887 10888 10889 10896 10902 10904 10905 10905 10904 10904 10905 10909 10913 10913 10914 10914 10911 10910 10909 10905
10595 10597 10599 10602 10607 10613 10613 10610 10614 10621 10623 10627 10632 10635 10639 10643 10644 10646 10650 10654 10660 10668 10678 10687 10689 10691 10697 10702 10708 10719 10730 10740 10748 10751 10762 10777 10784 10788 10798 10802 10803 10807 10811 10811 10812 10815 10822 10830 10835 10837 10837 10838 10846 10853 10855 10856 10859 10864 10865 10864 10863 10865 10867 10870 10874 10877 10876 10875 10878 10878 10880 10890 10896 10897 10898 10897 10895 10896 10899 10904 10906 10906 10907 10905 10902 10902 10901 10898
10580 10583 10585 10589 10593 10597 10600 10599 10603 10609 10611 10615 10622 10627 10631 10635 10635 10636 10640 10644 10650 10657 10665 10672 10675 10679 10687 10693 10700 10711 10722 10731 10738 10746 10759 10771 10777 10782 10789 10792 10793 10798 10802 10802 10804 10808 10814 10821 10826 10826 10826 10829 10836 10842 10846 10848 10852 10856 10858 10858 10857 10859 10862 10862 10864 10867 10868 10869 10871 10871 10874 10884 10890 10890 10889 10887 10887 10890 10894 10897 10899 10899 10900 10898 10894 10892 10890 10890
10565 10568 10570 10575 10579 10581 10586 10588 10591 10596 10599 10605 10613 10617 10621 10624 10624 10625 10631 10637 10642 10647 10652 10658 10664 10671 10680 10688 10695 10703 10713 10722 10731 10742 10752 10759 10765 10772 10777 10779 10783 10790 10795 10796 10796 10800 10805 10810 10814 10816 10817 10822 10828 10833 10838 10843 10846 10847 10850 10852 10852 10852 10852 10853 10854 10857 10861 10865 10868 10866 10870 10879 10881 10879 10878 10878 10880 10884 10887 10890 10891 10892 10893 10891 10888 10885 10881 10880
10547 10552 10555 10560 10564 10566 10571 10575 10579 10584 10587 10594 10602 10606 10609 10612 10613 10616 10623 10630 10635 10640 10648 10655 10659 10663 10671 10679 10686 10693 10703 10714 10724 10735 10743 10748 10754 10763 10767 10768 10775 10784 10788 10786 10787 10795 10800 10802 10806 10810 10812 10816 10820 10824 10830 10836 10838 10837 10841 10846 10844 10841 10842 10845 10848 10849 10854 10862 10865 10863 10867 10874 10871 10867 10869 10871 10873 10875 10878 10881 10883 10884 10884 10882 10880 10877 10874 10872